Theta_e
320 324 327 326 328 327 329 334 337 337 337 342 344 347 345 349 349 347 346 345 343 343 342 340 340 339 339 336 334 331 329 325 323 323 329 330 329 327 326 325 324 319 318
319 319 318 321 326 324 323 326 330 338 335 336 341 342 342 343 343 342 342 342 341 339 338 337 338 337 337 337 335 333 331 326 324 322 330 329 327 327 326 323 321 319 324
316 318 318 318 318 324 323 321 323 326 335 335 335 340 340 340 340 340 339 338 337 334 334 336 337 336 336 337 335 332 331 326 326 328 330 328 328 328 327 325 323 320 324
314 315 316 317 318 318 323 321 321 321 323 333 335 334 336 337 337 337 337 337 336 335 334 334 334 335 335 334 335 333 330 329 325 326 328 327 325 326 325 321 320 319 324
313 313 313 314 316 317 317 321 319 320 322 322 325 333 333 334 334 336 336 336 336 336 335 334 332 334 334 334 335 334 332 329 329 328 328 326 323 323 322 322 323 327 326
312 313 313 313 314 314 317 320 319 321 320 321 323 324 327 333 331 331 332 333 334 335 334 332 332 332 333 333 333 334 333 331 329 329 328 327 325 323 322 323 322 323 327
313 312 313 313 313 313 314 318 321 320 319 320 321 322 324 324 325 327 330 330 331 332 332 333 335 334 334 333 331 331 333 332 331 329 329 328 327 327 324 323 324 326 328
310 310 311 312 313 313 313 314 319 320 320 319 317 316 320 323 323 326 326 327 328 329 329 330 330 331 331 330 331 333 331 331 331 331 330 329 327 326 328 326 326 327 327
309 309 309 310 311 312 314 314 313 317 320 319 320 319 318 319 320 321 323 327 327 328 329 329 330 330 330 332 333 333 333 333 332 331 330 329 329 326 322 325 328 327 324
309 309 310 310 310 311 311 311 313 314 316 318 320 321 319 318 318 320 323 326 322 320 322 325 327 328 330 331 332 333 332 333 332 331 329 329 328 326 324 324 326 326 324
309 309 310 310 310 309 310 310 311 311 315 316 317 317 318 318 316 319 322 323 320 317 317 319 321 324 328 331 331 332 332 332 331 330 329 328 327 325 325 323 322 325 323
310 310 310 311 312 312 311 311 312 312 311 312 315 317 317 318 317 320 322 321 318 315 315 316 318 321 322 327 329 330 331 332 331 331 329 328 327 328 326 325 324 323 322
311 311 310 312 311 312 313 313 313 312 311 314 313 314 316 317 318 319 319 318 315 315 314 314 315 317 318 324 326 328 329 330 327 329 328 328 328 328 327 324 323 323 322
310 310 311 310 311 312 312 312 313 312 312 312 314 313 313 314 315 312 314 313 313 313 312 313 314 317 319 321 323 326 327 329 326 326 327 327 327 326 324 322 320 321 321
310 310 310 311 311 311 311 312 312 312 312 313 313 313 313 313 313 310 308 310 312 311 311 313 314 316 316 318 320 323 324 323 323 325 324 324 323 323 324 322 320 319 320
309 309 309 308 308 310 311 311 312 311 312 312 312 312 311 311 312 311 309 312 311 312 312 312 314 314 314 313 314 316 320 322 323 324 324 323 323 323 321 321 321 321 320
308 307 308 309 309 310 310 310 311 311 311 310 309 307 309 311 311 310 309 310 311 313 312 312 312 312 311 310 310 312 314 318 321 322 323 323 323 322 320 320 320 320 319
308 307 307 308 308 309 309 310 310 310 310 311 310 308 309 310 310 311 309 309 311 311 312 312 312 311 310 309 308 309 311 313 316 319 321 322 322 322 320 319 318 318 317
305 306 306 305 307 308 308 308 310 309 310 311 311 311 310 309 309 307 309 309 309 309 310 310 311 311 310 310 309 308 308 309 311 312 315 315 316 316 315 315 315 315 314
303 302 302 304 304 305 306 307 309 309 308 309 309 311 311 309 309 308 309 309 308 308 309 310 309 309 309 310 310 310 310 309 309 309 309 311 311 311 310 310 311 310 311
301 300 301 302 304 306 306 307 308 308 308 307 306 308 309 309 309 308 307 307 306 306 307 308 308 308 308 308 309 309 308 309 310 310 310 310 310 309 309 309 309 308 308
300 300 301 302 303 304 305 307 306 307 307 304 303 305 307 306 306 306 306 305 305 305 305 306 306 306 306 307 307 307 307 307 307 308 308 308 308 308 308 308 308 308 308
302 303 303 303 303 304 306 305 304 303 301 302 302 302 303 303 303 303 304 303 303 304 304 304 304 303 303 304 305 305 305 304 304 306 306 306 306 306 306 306 306 307 307
301 303 305 303 302 302 301 300 299 300 300 300 300 301 301 301 302 302 302 302 303 303 302 302 302 302 303 302 302 302 303 303 303 303 304 304 304 304 304 304 304 305 304
299 299 299 299 299 299 298 298 298 298 299 300 300 300 301 301 302 301 301 302 301 300 299 299 299 300 300 301 301 302 302 302 301 301 302 303 302 302 302 302 303 303 303
297 297 297 297 297 297 297 298 298 299 299 299 299 300 300 300 299 299 301 299 298 297 296 297 298 300 300 300 302 303 303 303 303 302 302 302 302 302 303 303 303 303 303
Wind_Speed
17 15 12 12 12 13 15 16 17 17 14 13 10 10 18 18 22 21 18 18 20 19 22 20 19 21 22 25 25 21 18 11 5 4 4 13 21 21 18 15 12 9 8
18 15 16 15 10 11 12 13 16 14 14 12 12 13 11 14 17 15 19 19 21 17 17 17 23 19 22 25 22 16 20 18 11 7 8 19 19 20 17 15 12 8 8
21 17 17 18 17 14 9 12 13 14 12 11 9 9 10 6 7 13 15 16 18 19 19 19 22 20 22 23 24 22 15 17 12 11 10 15 19 19 16 16 17 13 12
22 22 20 20 22 20 10 10 11 13 13 12 12 10 10 10 15 17 15 18 22 21 20 20 20 19 22 23 22 23 23 13 16 13 11 14 15 17 16 16 16 16 14
20 23 24 26 23 22 20 13 9 9 10 13 12 11 10 9 11 14 14 18 18 22 18 18 19 22 20 20 21 24 19 19 13 15 12 10 12 11 18 15 18 14 16
18 19 22 25 26 26 24 17 10 7 11 11 14 14 9 7 8 9 11 18 14 13 16 17 18 20 21 21 21 19 20 22 19 18 21 13 17 20 19 22 21 15 4
23 19 21 22 26 26 28 25 13 9 10 11 11 15 16 12 8 8 7 6 13 19 17 14 14 17 19 22 23 25 25 26 26 27 26 26 22 15 23 19 21 17 11
19 22 22 25 25 25 23 24 25 15 10 10 14 14 16 15 11 11 9 10 8 10 14 19 25 30 31 31 30 32 33 34 32 33 32 32 30 26 15 17 14 25 12
21 20 23 24 26 28 27 23 20 20 18 16 16 16 14 14 13 15 12 12 7 9 13 20 20 22 27 30 31 31 36 35 35 32 35 31 27 27 25 14 16 11 5
18 19 20 21 23 23 26 28 24 23 21 22 22 19 18 19 19 19 16 9 11 7 15 18 20 22 25 25 27 26 24 32 32 29 30 35 31 21 24 27 21 22 17
22 24 24 23 24 27 25 25 28 27 23 22 25 27 28 26 27 24 20 13 13 15 13 14 22 21 18 20 24 31 29 31 30 28 29 31 34 33 30 32 33 36 26
22 25 25 24 26 26 26 26 25 26 24 23 24 27 30 31 32 24 21 16 10 12 14 16 16 23 24 20 21 25 31 30 30 26 25 26 27 34 42 47 43 44 41
22 20 24 23 26 25 24 26 26 25 21 19 21 21 23 30 28 19 20 12 11 14 15 14 15 22 23 19 22 25 22 26 27 20 17 22 28 28 33 33 35 38 34
22 20 20 22 23 22 22 23 23 22 22 23 21 20 21 19 3 6 8 7 8 10 14 17 17 16 16 16 18 19 20 26 23 21 20 24 21 23 29 31 32 35 32
19 17 19 18 18 20 22 19 22 23 24 24 23 20 19 12 6 12 21 12 7 9 15 14 14 11 15 12 13 18 18 20 20 19 21 20 19 23 27 31 30 27 26
12 13 17 20 21 20 22 23 21 23 23 24 20 17 17 16 13 11 19 19 11 7 11 11 13 11 13 12 12 15 17 21 22 20 18 16 12 15 18 22 25 26 23
16 20 22 24 21 16 19 22 20 23 19 17 12 11 14 15 14 10 10 10 8 6 6 8 10 9 7 11 12 13 14 15 21 17 18 14 11 8 17 19 20 20 17
16 18 20 22 21 21 21 23 21 21 17 21 23 25 21 14 14 9 7 9 7 3 4 4 7 6 7 8 8 8 8 10 11 16 19 18 17 19 20 21 21 19 18
20 21 21 25 23 21 21 22 20 21 17 16 20 21 18 16 10 7 4 4 2 4 4 2 4 4 4 6 7 7 4 5 8 10 11 8 10 13 12 14 15 16 18
21 22 24 22 21 22 24 21 19 11 12 14 18 17 17 11 11 9 8 5 3 1 2 3 4 5 7 5 4 5 3 1 4 6 11 14 7 5 8 10 11 14 12
23 24 24 21 16 16 16 18 12 7 10 4 4 4 13 14 12 14 12 7 4 2 3 3 4 5 6 7 4 5 5 10 7 6 12 18 13 10 10 8 9 10 10
24 23 21 18 15 17 15 10 6 7 4 10 10 11 12 14 13 11 10 8 6 4 3 3 5 5 6 5 3 5 5 6 7 8 14 14 13 12 11 11 10 10 10
22 20 17 14 14 13 1 10 12 14 15 13 13 15 16 15 12 11 10 8 7 6 6 7 8 7 4 4 4 4 4 5 3 3 7 10 8 9 9 9 9 9 10
22 21 15 16 20 22 19 17 18 19 17 17 16 16 16 13 11 8 9 9 10 11 11 10 8 7 6 6 6 6 3 4 4 2 5 7 8 7 8 8 8 9 8
21 21 22 20 19 19 21 21 21 21 19 19 17 16 15 15 16 14 14 15 15 14 13 12 11 11 10 8 8 9 9 8 11 9 8 11 12 11 12 11 9 8 8
23 23 22 22 23 22 21 19 19 19 19 22 23 19 17 19 23 21 13 16 17 16 14 11 10 11 10 11 11 10 10 11 11 9 10 13 14 14 13 13 12 10 9
Wind_Direction
36 44 43 38 27 18 14 8 359 358 342 300 278 239 237 213 216 221 230 238 241 253 254 252 257 259 255 255 258 261 261 235 191 265 230 196 187 191 196 212 230 248 220
15 7 5 5 358 359 356 359 8 352 348 336 289 264 245 259 251 247 246 244 244 254 259 259 260 262 255 256 258 255 245 242 232 207 180 172 184 191 205 218 225 230 231
1 358 352 345 345 331 339 346 342 349 341 350 310 278 236 240 262 249 248 245 249 267 263 264 263 261 255 253 247 247 251 239 226 203 178 184 197 205 205 236 238 231 229
353 351 343 335 329 329 306 326 334 343 345 344 339 325 280 252 263 261 257 262 263 262 261 259 260 261 254 250 246 248 238 237 219 204 198 185 204 217 210 223 232 225 215
344 337 331 328 324 317 323 293 306 325 330 335 339 329 337 311 288 267 266 267 267 260 242 250 263 257 254 254 259 251 243 239 243 228 206 185 198 182 207 219 236 235 229
323 321 321 322 327 326 318 306 273 295 307 324 332 329 333 327 323 287 266 268 275 254 247 256 257 255 249 249 250 247 248 246 244 239 224 205 212 212 212 223 232 226 224
327 311 310 312 318 323 327 330 287 292 301 310 320 323 319 318 322 310 289 286 272 264 270 275 261 253 256 254 255 255 251 249 251 252 236 223 216 231 230 223 236 238 207
330 330 332 340 326 320 325 332 333 286 276 286 295 304 319 310 307 292 285 268 266 287 287 282 275 271 264 265 265 257 254 248 249 244 242 242 231 207 229 214 247 227 188
311 317 319 320 326 328 333 321 320 322 292 285 288 293 291 296 294 294 290 274 271 287 288 292 287 285 278 272 264 256 252 254 256 254 244 248 245 233 230 222 194 260 317
314 312 311 313 315 321 323 323 332 318 300 295 294 293 288 296 297 294 289 279 297 304 288 287 291 289 289 280 268 263 236 248 251 248 247 246 243 228 225 219 216 204 208
302 301 307 306 311 310 306 308 312 313 325 302 294 292 288 294 291 289 281 289 307 310 299 295 301 299 284 283 272 257 245 252 254 255 253 253 240 230 236 223 222 216 206
297 290 295 296 300 299 300 302 303 304 306 305 305 297 289 283 285 279 259 261 288 296 294 299 297 292 289 273 276 271 258 252 254 242 234 235 234 246 246 246 240 229 226
293 291 296 299 304 302 296 296 297 295 294 291 289 293 287 282 285 263 241 261 295 307 304 294 282 276 285 294 281 269 270 261 252 237 230 235 241 252 257 239 230 221 215
297 295 297 302 300 302 303 300 292 289 286 285 278 280 289 311 229 306 254 272 317 316 311 308 304 301 300 304 293 277 265 252 242 236 232 243 248 253 240 223 206 193 182
307 308 311 309 315 310 309 300 297 298 291 283 277 274 277 270 273 317 312 322 336 334 321 321 324 324 308 306 304 283 263 242 228 234 239 244 254 268 236 216 201 183 184
317 313 312 311 313 309 307 311 307 303 293 289 283 276 266 254 256 258 287 300 304 304 307 308 312 318 313 314 307 299 279 251 244 230 232 231 250 240 209 194 188 190 192
316 319 315 307 304 309 311 311 298 310 298 277 260 273 273 259 237 218 252 284 290 283 268 303 309 310 321 323 318 309 312 292 266 244 218 204 212 195 172 165 175 177 182
325 321 317 311 311 308 306 303 299 299 293 285 273 269 284 267 248 219 257 277 242 278 302 312 321 329 330 341 341 317 306 298 271 225 208 206 199 188 188 181 183 183 183
323 317 312 308 302 302 304 306 303 300 304 312 304 283 266 256 235 219 206 261 283 289 294 317 31 19 339 23 6 14 336 264 240 223 168 188 198 214 201 193 188 190 185
313 306 303 304 302 296 294 298 301 297 318 306 309 275 259 213 213 203 149 135 152 38 22 127 75 44 32 25 346 7 352 87 170 171 144 130 126 187 153 151 169 166 172
310 301 296 296 293 295 302 305 311 297 316 20 92 131 166 173 139 149 131 130 101 45 53 60 67 66 48 29 25 90 92 89 101 150 109 101 112 127 122 142 165 166 166
303 290 284 276 285 290 297 309 7 338 84 99 84 83 110 112 121 119 121 108 93 73 67 67 68 66 52 66 40 52 54 88 102 111 106 109 120 117 121 121 139 146 157
332 320 308 287 286 281 15 81 60 64 61 75 81 85 83 83 80 92 98 95 87 81 80 84 77 69 58 42 39 58 39 9 360 102 123 120 124 130 128 137 147 147 151
23 38 41 52 65 81 83 75 72 79 78 74 72 78 82 82 84 85 91 91 89 83 71 66 66 63 48 32 21 37 36 327 309 187 158 143 130 137 141 155 151 153 159
46 43 48 52 60 66 70 69 67 66 64 69 71 74 75 75 77 73 80 84 82 77 65 63 61 64 72 75 63 59 77 80 75 87 110 117 128 127 127 130 137 146 154
51 53 56 60 61 63 68 70 69 69 66 58 56 65 67 69 66 65 77 80 74 62 54 56 60 71 68 58 60 71 83 83 82 84 91 110 126 118 118 119 121 125 135